�������l�o���
Date,Time,MP-1(��Sv/h),MP-2(��Sv/h),MP-3(��Sv/h),MP-4(��Sv/h),MP-5(��Sv/h),MP-6(��Sv/h),MP-7(��Sv/h),����,����(m/s),���J
2014/02/27,00:00,0.8,0.5,0.8,0.7,0.7,0.3,0.3,��쐼,0.9,��
2014/02/27,00:10,0.8,0.5,0.8,0.7,0.7,0.3,0.3,��쐼,0.8,��
2014/02/27,00:20,0.8,0.5,0.8,0.7,0.7,0.3,0.3,��,0.7,��
2014/02/27,00:30,0.8,0.5,0.8,0.7,0.7,0.3,0.3,-,CALM,��
2014/02/27,00:40,0.8,0.5,0.8,0.7,0.7,0.3,0.3,-,CALM,��
2014/02/27,00:50,0.8,0.5,0.8,0.7,0.7,0.3,0.3,-,CALM,��
2014/02/27,01:00,0.8,0.5,0.8,0.7,0.7,0.3,0.3,-,CALM,��
2014/02/27,01:10,0.8,0.5,0.8,0.7,0.7,0.3,0.3,��,0.6,��
2014/02/27,01:20,0.8,0.5,0.8,0.7,0.7,0.3,0.3,-,CALM,��
2014/02/27,01:30,0.8,0.5,0.8,0.7,0.7,0.3,0.3,�k,0.6,��
2014/02/27,01:40,0.8,0.5,0.8,0.7,0.7,0.3,0.3,���k��,1.2,��
2014/02/27,01:50,0.8,0.5,0.8,0.7,0.7,0.3,0.3,-,CALM,��
2014/02/27,02:00,0.8,0.5,0.8,0.7,0.7,0.3,0.3,�k,0.5,��
2014/02/27,02:10,0.8,0.5,0.8,0.7,0.7,0.3,0.3,-,CALM,��
2014/02/27,02:20,0.8,0.5,0.8,0.7,0.7,0.3,0.3,-,CALM,��
2014/02/27,02:30,0.8,0.5,0.8,0.7,0.7,0.3,0.3,�k��,0.5,��
2014/02/27,02:40,0.8,0.5,0.8,0.7,0.7,0.3,0.3,-,CALM,��
2014/02/27,02:50,0.8,0.5,0.8,0.7,0.7,0.3,0.3,��,0.6,��
2014/02/27,03:00,0.8,0.5,0.8,0.7,0.7,0.3,0.3,-,CALM,��
2014/02/27,03:10,0.8,0.5,0.8,0.7,0.7,0.3,0.3,-,CALM,��
2014/02/27,03:20,0.8,0.5,0.8,0.7,0.7,0.3,0.3,�쓌,0.8,��
2014/02/27,03:30,0.8,0.5,0.8,0.7,0.7,0.3,0.3,��,1.8,��
2014/02/27,03:40,0.8,0.5,0.8,0.7,0.7,0.3,0.3,��쓌,1.4,��
2014/02/27,03:50,0.8,0.5,0.8,0.7,0.7,0.3,0.3,��,1.4,��
2014/02/27,04:00,0.8,0.5,0.8,0.7,0.7,0.3,0.3,��,1.6,��
2014/02/27,04:10,0.8,0.5,0.8,0.7,0.7,0.3,0.3,��,2.1,��
2014/02/27,04:20,0.8,0.5,0.8,0.7,0.7,0.3,0.3,��,1.9,��
2014/02/27,04:30,0.8,0.5,0.8,0.7,0.7,0.3,0.3,��쓌,2.2,��
2014/02/27,04:40,0.8,0.5,0.8,0.7,0.7,0.3,0.3,��,2.0,��
2014/02/27,04:50,0.8,0.5,0.8,0.7,0.7,0.3,0.3,��,1.7,��
2014/02/27,05:00,0.8,0.5,0.8,0.7,0.7,0.3,0.3,��,0.7,��
2014/02/27,05:10,0.8,0.5,0.8,0.7,0.7,0.3,0.3,��,1.1,��
2014/02/27,05:20,0.8,0.5,0.8,0.7,0.7,0.3,0.3,-,CALM,��
2014/02/27,05:30,0.8,0.5,0.8,0.7,0.7,0.3,0.3,-,CALM,��
2014/02/27,05:40,0.8,0.5,0.8,0.7,0.7,0.3,0.3,-,CALM,��
2014/02/27,05:50,0.8,0.5,0.8,0.7,0.7,0.3,0.3,���쓌,1.0,��
2014/02/27,06:00,0.8,0.5,0.8,0.7,0.7,0.3,0.3,���쓌,0.8,��
2014/02/27,06:10,0.8,0.5,0.8,0.7,0.7,0.3,0.3,���쓌,0.8,��
2014/02/27,06:20,0.8,0.5,0.8,0.7,0.7,0.3,0.3,-,CALM,��
2014/02/27,06:30,0.8,0.5,0.8,0.7,0.7,0.3,0.3,��쓌,0.6,��
2014/02/27,06:40,0.8,0.5,0.8,0.7,0.7,0.3,0.3,��쓌,1.0,��
2014/02/27,06:50,0.8,0.5,0.8,0.7,0.7,0.3,0.3,��,0.7,��
2014/02/27,07:00,0.8,0.5,0.8,0.7,0.7,0.3,0.3,��쓌,0.8,��
2014/02/27,07:10,0.8,0.5,0.8,0.7,0.7,0.3,0.3,��쓌,1.1,��
2014/02/27,07:20,0.8,0.5,0.8,0.7,0.7,0.3,0.3,��쓌,1.2,��
2014/02/27,07:30,0.8,0.5,0.8,0.7,0.7,0.3,0.3,��쓌,0.6,��
2014/02/27,07:40,0.8,0.5,0.8,0.7,0.7,0.3,0.3,��쐼,1.0,��
2014/02/27,07:50,0.8,0.5,0.8,0.7,0.7,0.3,0.3,��,1.4,��
2014/02/27,08:00,0.8,0.5,0.8,0.7,0.7,0.3,0.3,��쓌,2.4,��
2014/02/27,08:10,0.8,0.5,0.8,0.7,0.7,0.3,0.3,��,3.0,��
2014/02/27,08:20,0.8,0.5,0.8,0.7,0.7,0.3,0.3,��,3.1,��
2014/02/27,08:30,0.8,0.5,0.8,0.7,0.7,0.3,0.3,��,3.6,��
2014/02/27,08:40,0.8,0.5,0.8,0.7,0.7,0.3,0.3,��,2.6,��
2014/02/27,08:50,0.8,0.5,0.8,0.7,0.7,0.3,0.3,��쓌,2.0,��
2014/02/27,09:00,0.8,0.5,0.8,0.7,0.7,0.3,0.3,��,2.7,��
2014/02/27,09:10,0.8,0.5,0.8,0.7,0.7,0.3,0.3,��쓌,2.6,��
2014/02/27,09:20,0.8,0.5,0.8,0.7,0.7,0.3,0.3,��쓌,3.1,��
2014/02/27,09:30,0.8,0.5,0.8,0.7,0.7,0.3,0.3,��쓌,3.5,��
2014/02/27,09:40,0.8,0.5,0.8,0.7,0.7,0.3,0.3,��쓌,2.8,��
2014/02/27,09:50,0.8,0.5,0.8,0.7,0.7,0.3,0.3,��쓌,2.2,��
2014/02/27,10:00,0.8,0.5,0.8,0.7,0.7,0.3,0.3,��쓌,2.2,��
2014/02/27,10:10,0.8,0.5,0.8,0.7,0.7,0.3,0.3,�쓌,2.5,��
2014/02/27,10:20,0.8,0.5,0.8,0.7,0.7,0.3,0.3,��쓌,3.0,��
2014/02/27,10:30,0.8,0.5,0.8,0.7,0.7,0.3,0.3,��,5.0,��
2014/02/27,10:40,0.8,0.5,0.8,0.7,0.7,0.3,0.3,��,7.3,��
2014/02/27,10:50,0.8,0.5,0.8,0.7,0.7,0.3,0.3,��쐼,6.8,��
2014/02/27,11:00,0.8,0.5,0.8,0.7,0.7,0.3,0.3,��쐼,6.1,��
2014/02/27,11:10,0.8,0.5,0.8,0.7,0.7,0.3,0.3,��쐼,5.1,�L
2014/02/27,11:20,0.8,0.5,0.8,0.7,0.7,0.3,0.3,��쐼,4.6,�L
2014/02/27,11:30,0.8,0.5,0.8,0.7,0.7,0.3,0.3,��쐼,6.0,�L
2014/02/27,11:40,0.8,0.5,0.8,0.7,0.7,0.3,0.3,��쐼,7.0,�L
2014/02/27,11:50,0.8,0.5,0.8,0.7,0.7,0.3,0.3,��쐼,7.2,�L
2014/02/27,12:00,0.8,0.5,0.8,0.7,0.7,0.3,0.3,��쐼,7.2,�L
2014/02/27,12:10,0.8,0.5,0.8,0.7,0.7,0.3,0.3,��쐼,7.5,�L
2014/02/27,12:20,0.8,0.5,0.8,0.7,0.7,0.3,0.3,��쐼,8.2,�L
2014/02/27,12:30,0.8,0.5,0.8,0.7,0.7,0.3,0.3,��쐼,7.5,�L
2014/02/27,12:40,0.8,0.5,0.8,0.7,0.7,0.3,0.3,��쐼,7.0,�L
2014/02/27,12:50,0.8,0.5,0.8,0.7,0.7,0.3,0.3,��쐼,6.8,�L
2014/02/27,13:00,0.8,0.5,0.8,0.7,0.7,0.3,0.3,��쐼,7.2,��
2014/02/27,13:10,0.8,0.5,0.8,0.7,0.7,0.3,0.3,��쐼,8.4,��
2014/02/27,13:20,0.8,0.5,0.8,0.7,0.7,0.3,0.3,��쐼,9.0,��
2014/02/27,13:30,0.8,0.5,0.8,0.7,0.7,0.3,0.3,��쐼,9.2,�L
2014/02/27,13:40,0.8,0.5,0.8,0.7,0.7,0.3,0.3,��쐼,9.0,�L
2014/02/27,13:50,0.8,0.5,0.8,0.7,0.7,0.3,0.3,��쐼,8.0,�L
2014/02/27,14:00,0.8,0.5,0.8,0.7,0.7,0.3,0.3,��쐼,8.9,�L
2014/02/27,14:10,0.8,0.5,0.8,0.7,0.7,0.3,0.3,��쐼,7.7,�L
2014/02/27,14:20,0.8,0.5,0.8,0.7,0.7,0.3,0.3,��쐼,6.2,�L
2014/02/27,14:30,0.8,0.5,0.8,0.7,0.7,0.3,0.3,��쐼,7.3,�L
2014/02/27,14:40,0.8,0.5,0.8,0.7,0.7,0.3,0.3,��쐼,7.3,�L
2014/02/27,14:50,0.8,0.5,0.8,0.7,0.7,0.3,0.3,��,7.9,�L
2014/02/27,15:00,0.8,0.5,0.8,0.7,0.7,0.3,0.3,��쐼,9.8,�L
2014/02/27,15:10,0.8,0.5,0.8,0.7,0.7,0.3,0.3,��쐼,9.2,�L
2014/02/27,15:20,0.8,0.5,0.8,0.7,0.7,0.3,0.3,��쐼,10.4,�L
2014/02/27,15:30,0.8,0.5,0.8,0.7,0.7,0.3,0.3,��쐼,9.8,�L
2014/02/27,15:40,0.8,0.5,0.8,0.7,0.7,0.3,0.3,��쐼,9.8,�L
2014/02/27,15:50,0.8,0.5,0.8,0.7,0.7,0.3,0.3,��쐼,10.0,�L
2014/02/27,16:00,0.8,0.5,0.8,0.7,0.7,0.3,0.3,��쐼,10.5,�L
2014/02/27,16:10,0.8,0.5,0.8,0.7,0.7,0.3,0.3,��쐼,8.8,�L
2014/02/27,16:20,0.8,0.5,0.8,0.7,0.7,0.3,0.3,��쐼,10.1,�L
2014/02/27,16:30,0.8,0.5,0.8,0.7,0.7,0.3,0.3,��쐼,10.0,�L
2014/02/27,16:40,0.8,0.5,0.8,0.7,0.7,0.3,0.3,��쐼,9.4,�L
2014/02/27,16:50,0.8,0.5,0.8,0.7,0.7,0.3,0.3,��쐼,8.5,�L
2014/02/27,17:00,0.8,0.5,0.8,0.7,0.7,0.3,0.3,��쐼,8.6,��
2014/02/27,17:10,0.8,0.5,0.8,0.7,0.7,0.3,0.3,��쐼,8.9,��
2014/02/27,17:20,0.8,0.5,0.8,0.7,0.7,0.3,0.3,��쐼,9.5,��
2014/02/27,17:30,0.8,0.5,0.8,0.7,0.7,0.3,0.3,��쐼,11.5,��
2014/02/27,17:40,0.8,0.5,0.8,0.7,0.7,0.3,0.3,��쐼,10.2,��
2014/02/27,17:50,0.8,0.5,0.8,0.7,0.7,0.3,0.3,��쐼,9.2,��
2014/02/27,18:00,0.8,0.5,0.8,0.7,0.7,0.3,0.3,��쐼,8.7,��
2014/02/27,18:10,0.8,0.5,0.8,0.7,0.7,0.3,0.3,��쐼,8.4,�L
2014/02/27,18:20,0.8,0.5,0.8,0.7,0.7,0.3,0.3,��쐼,8.9,�L
2014/02/27,18:30,0.8,0.5,0.8,0.7,0.7,0.3,0.3,��,8.9,��
2014/02/27,18:40,0.8,0.5,0.8,0.7,0.7,0.3,0.3,��,7.8,�L
2014/02/27,18:50,0.8,0.5,0.8,0.7,0.7,0.3,0.3,��,7.8,�L
2014/02/27,19:00,0.8,0.5,0.8,0.7,0.7,0.3,0.3,��,8.7,�L
2014/02/27,19:10,0.8,0.5,0.8,0.7,0.7,0.3,0.3,��쐼,9.1,�L
2014/02/27,19:20,0.8,0.5,0.8,0.7,0.7,0.3,0.3,��쐼,8.6,��
2014/02/27,19:30,0.8,0.5,0.8,0.7,0.7,0.3,0.3,��쐼,7.4,�L
2014/02/27,19:40,0.8,0.5,0.8,0.7,0.7,0.3,0.3,��쐼,6.6,�L
2014/02/27,19:50,0.8,0.5,0.8,0.7,0.7,0.3,0.3,��쐼,7.7,�L
2014/02/27,20:00,0.8,0.5,0.8,0.7,0.7,0.3,0.3,��쐼,7.5,�L
2014/02/27,20:10,0.8,0.5,0.8,0.7,0.7,0.3,0.3,��쐼,8.9,�L
2014/02/27,20:20,0.8,0.5,0.8,0.7,0.7,0.3,0.3,��쐼,9.6,��
2014/02/27,20:30,0.8,0.5,0.8,0.7,0.7,0.3,0.3,��쐼,10.7,�L
2014/02/27,20:40,0.8,0.5,0.8,0.7,0.7,0.3,0.3,��쐼,11.1,�L
2014/02/27,20:50,0.8,0.5,0.8,0.7,0.7,0.3,0.3,��쐼,11.5,��
2014/02/27,21:00,0.8,0.5,0.8,0.7,0.7,0.3,0.3,��쐼,11.9,��
2014/02/27,21:10,0.8,0.5,0.8,0.7,0.7,0.3,0.3,��쐼,11.6,��
2014/02/27,21:20,0.8,0.5,0.8,0.7,0.7,0.3,0.3,��쐼,12.1,��
2014/02/27,21:30,0.8,0.5,0.8,0.7,0.7,0.3,0.3,��쐼,9.2,��
2014/02/27,21:40,0.8,0.5,0.8,0.7,0.7,0.3,0.3,��쐼,9.3,��
2014/02/27,21:50,0.8,0.5,0.8,0.7,0.7,0.3,0.3,��쐼,9.4,��
2014/02/27,22:00,0.8,0.5,0.8,0.7,0.7,0.3,0.3,��쐼,9.8,��
2014/02/27,22:10,0.8,0.5,0.8,0.7,0.7,0.3,0.3,��쐼,11.0,�L
2014/02/27,22:20,0.8,0.5,0.8,0.7,0.7,0.3,0.3,��쐼,11.5,�L
2014/02/27,22:30,0.8,0.5,0.8,0.7,0.7,0.3,0.3,��쐼,9.9,�L
2014/02/27,22:40,0.8,0.5,0.8,0.7,0.7,0.3,0.3,��쐼,11.3,�L
2014/02/27,22:50,0.8,0.5,0.8,0.7,0.7,0.3,0.3,��쐼,11.5,�L
2014/02/27,23:00,0.8,0.5,0.8,0.7,0.7,0.3,0.3,��쐼,12.3,�L
2014/02/27,23:10,0.8,0.5,0.8,0.7,0.7,0.3,0.3,��쐼,12.6,�L
2014/02/27,23:20,0.8,0.5,0.8,0.7,0.7,0.3,0.3,��쐼,13.1,��
2014/02/27,23:30,0.8,0.5,0.8,0.7,0.7,0.3,0.3,��쐼,12.3,��
2014/02/27,23:40,0.8,0.5,0.8,0.7,0.7,0.3,0.3,��쐼,11.4,�L
2014/02/27,23:50,0.8,0.5,0.8,0.7,0.7,0.3,0.3,��쐼,11.6,�L
